Regional Weather Roundup
Issued by NWS

Home | Current Version | Previous Version | Text Only | Print | Product List | Glossary Off
Versions: 1 2 3 4 5 6 7 8 9 10 11 12 13 14 15 16 17 18 19 20 21 22 23 24 25 26 27 28 29 30 31 32 33 34 35 36 37 38 39 40 41 42 43 44 45 46 47 48 49 50

000
ASUS43 KDTX 301610
RWRMI
MICHIGAN HOURLY REGIONAL WEATHER ROUNDUP
NATIONAL WEATHER SERVICE DETROIT/PONTIAC MI
1200 PM EDT TUE JUN 30 2015

NOTE: "FAIR" INDICATES FEW OR NO CLOUDS BELOW 12,000 FEET WITH NO
SIGNIFICANT WEATHER AND/OR OBSTRUCTION TO VISIBILITY.

MIZ047>049-052>055-059>063-066>070-074>076-081>083-301700-
SOUTHEAST LOWER MICHIGAN

CITY           SKY/WX    TMP DP  RH WIND       PRES   REMARKS
ADRIAN         PTSUNNY   70  60  70 W3        29.82S
ALMA           CLOUDY    67  61  78 CALM      29.81S
ANN ARBOR      PTSUNNY   70  61  73 SW6       29.80F
BAD AXE        CLOUDY    65  56  71 E5        29.83S
CARO           CLOUDY    69  60  73 NE3       29.81S
DETROIT CITY   CLOUDY    69  60  73 S6        29.80F
DETROIT        CLOUDY    70  61  73 CALM      29.80F
FLINT          PTSUNNY   71  59  65 S3        29.81S
GROSSE ILE       N/A     70  63  78 W3        29.79F
HILLSDALE      CLOUDY    67  64  87 S6        29.82S
HOWELL         CLOUDY    68  61  78 CALM      29.81S

CITY           SKY/WX    TMP DP  RH WIND       PRES   REMARKS
JACKSON        CLOUDY    69  61  75 VRB7      29.81S
LAMBERTVILLE   PTSUNNY   72  60  66 SW3       29.82R
LANSING        CLOUDY    67  58  72 S3        29.81S
LAPEER         CLOUDY    67  58  71 CALM      29.80F
MASON          CLOUDY    66  58  75 CALM      29.80F
MONROE         CLOUDY    70  61  72 W7        29.80R
MT. CLEMENS    PTSUNNY   67  62  84 E6        29.78F
PONTIAC        CLOUDY    66  60  81 W6        29.80S
PORT HOPE        N/A     63  58  83 E7        29.82S
PORT HURON     CLOUDY    66  61  82 CALM      29.80F
TRI CITIES     CLOUDY    71  59  65 S3        29.81S
MIDLAND        PTSUNNY   69  57  65 CALM      29.80S
TROY           CLOUDY    70  61  73 W3        29.82S
SAGINAW HB     CLOUDY    70  59  68 SE5       29.80S
$$
MIZ043>046-050>051-056>058-064>065-071>073-077>080-301700-
SOUTHWEST LOWER MICHIGAN

CITY           SKY/WX    TMP DP  RH WIND       PRES   REMARKS
BATTLE CREEK   CLOUDY    68  62  81 SW8       29.81S
BENTON HARBOR  CLOUDY    65  62  90 W9        29.80S FOG
BIG RAPIDS     CLOUDY    66  57  72 CALM      29.80S
COLDWATER      CLOUDY    65  61  88 SW5       29.81S
FREMONT        DRIZZLE   62  61  97 SE7       29.79S
HOLLAND        CLOUDY    66  63  90 W10       29.80R FOG
GRAND RAPIDS   LGT RAIN  63  61  93 E8        29.79F
IONIA          CLOUDY    67  58  72 S5        29.79S
KALAMAZOO      CLOUDY    67  62  84 S6        29.81S
LUDINGTON      DRIZZLE   64  61  90 CALM      29.80R
MARSHALL       CLOUDY    66  61  82 S5        29.81R
MOUNT PLEASANT CLOUDY    67  60  76 E5        29.80F
MUSKEGON       FOG       64  62  93 W7        29.79R VSB 1/4
SOUTH HAVEN    CLOUDY    64  62  93 W6        29.80S FOG
$$
MIZ016>042-301700-
NORTHERN LOWER MICHIGAN

CITY           SKY/WX    TMP DP  RH WIND       PRES   REMARKS
ALPENA         CLOUDY    72  58  61 S6        29.81S
BEAVER ISLAND  FOG       60  58  96 NW3       29.82R VSB 1/2
BELLAIRE       CLOUDY    69  58  69 SW7       29.80S
CADILLAC       CLOUDY    63  59  87 SE5       29.81S
CHARLEVOIX     CLOUDY    65  61  87 W7        29.84R
FRANKFORT      CLOUDY    67  58  73 NW6       29.81S
GAYLORD        CLOUDY    68  56  65 VRB5      29.82R
GRAYLING       CLOUDY    67  58  73 CALM      29.82S
HARBOR SPRINGS CLOUDY    68  60  76 SW3       29.80S
HOUGHTON LAKE  CLOUDY    65  58  78 SE5       29.83R
MANISTEE       CLOUDY    64  57  77 N5        29.81S
OSCODA         CLOUDY    66  59  77 SE3       29.82S
PELLSTON       CLOUDY    69  62  78 NW7       29.80S
ROGERS CITY    PTSUNNY   67  60  76 NE7       29.82S
TRAVERSE CITY  CLOUDY    67  59  75 CALM      29.80R
$$
MIZ007>008-015-301700-
EASTERN UPPER MICHIGAN

CITY           SKY/WX    TMP DP  RH WIND       PRES   REMARKS
KINROSS        CLOUDY    70  61  73 NE3       29.80F
MACKINAC ISLAN CLOUDY    68  56  65 E5        29.81R
NEWBERRY       LGT RAIN  61  60  98 W7        29.82S
S. S. MARIE    PTSUNNY   71  59  65 VRB3      29.80S
MUNISING         N/A     46  44  93 NW14      29.87R
$$
MIZ004>006-011>014-085-301700-
CENTRAL UPPER MICHIGAN

CITY           SKY/WX    TMP DP  RH WIND       PRES   REMARKS
MANISTIQUE     CLOUDY    50  48  91 NW8       29.83S
ESCANABA       CLOUDY    54  48  82 N14       29.85S
MENOMINEE      CLOUDY    61  52  72 N10       29.84S
SAWYER-GWINN   CLOUDY    48  45  87 N12       29.88R
$$
MIZ001>003-009>011-084-301700-
WESTERN UPPER MICHIGAN

CITY           SKY/WX    TMP DP  RH WIND       PRES   REMARKS
IRON MOUNTAIN  CLOUDY    59  51  75 NW13      29.87R
HOUGHTON       CLOUDY    49  42  77 N13       29.95R
COPPER HARBOR    N/A     45  41  86 NE14G21   29.94R
IRONWOOD       CLOUDY    52  48  87 N6        29.95R
$$

ABBREVIATIONS USED IN REMARKS
   TC - TEMPERATURE IN CELSIUS
  WCI - WIND CHILL INDEX
   HX - HEAT INDEX
  VSB - VISIBILITY



USA.gov is the U.S. government's official web portal to all federal, state and local government web resources and services.